This is the latest recevied weather packets stored in our database for station/object KB3UMW-13. If no packets are shown the sender has not sent any weather packets the latest 10 day(s).
| Time | Temp. | Humidity | Pressure | Rain* | Wind** | Luminosity | Snow |
|---|---|---|---|---|---|---|---|
| 1777739448 | 8.89° C | 60% | 1013.5 hPa | 0 mm | - | 319 W/m² | - |
| 1777739145 | 9.44° C | 64% | 1013.7 hPa | 0 mm | - | 926 W/m² | - |
| 1777738842 | 7.78° C | 64% | 1013.7 hPa | 0 mm | - | 582 W/m² | - |
| 1777738539 | 7.78° C | 62% | 1013.7 hPa | 0 mm | - | 347 W/m² | - |
| 1777738236 | 8.33° C | 65% | 1013.5 hPa | 0 mm | - | 351 W/m² | - |
| 1777737934 | 8.89° C | 61% | 1013.8 hPa | 0 mm | - | 1098 W/m² | - |
| 1777737632 | 7.22° C | 65% | 1013.8 hPa | 0 mm | - | 1056 W/m² | - |
| 1777737331 | 7.78° C | 63% | 1013.9 hPa | 0 mm | - | 199 W/m² | - |
| 1777737027 | 7.78° C | 64% | 1013.8 hPa | 0 mm | - | 412 W/m² | - |
| 1777736722 | 7.78° C | 63% | 1013.7 hPa | 0 mm | - | 221 W/m² | - |
| 1777736095 | 9.44° C | 68% | 1013.7 hPa | 0 mm | - | 742 W/m² | - |
| 1777735792 | 8.89° C | 62% | 1014 hPa | 0 mm | - | 773 W/m² | - |
| 1777735490 | 8.89° C | 66% | 1013.9 hPa | 0 mm | - | 424 W/m² | - |
| 1777735187 | 7.22° C | 67% | 1013.8 hPa | 0 mm | - | 286 W/m² | - |
| 1777734884 | 7.78° C | 71% | 1014 hPa | 0 mm | - | 611 W/m² | - |
| 1777734581 | 7.22° C | 68% | 1013.8 hPa | 0 mm | - | 637 W/m² | - |
| 1777734278 | 7.22° C | 61% | 1013.8 hPa | 0 mm | - | 411 W/m² | - |
| 1777733974 | 8.33° C | 67% | 1013.8 hPa | 0 mm | - | 748 W/m² | - |
| 1777733671 | 7.78° C | 66% | 1013.5 hPa | 0 mm | - | 520 W/m² | - |
| 1777733367 | 7.22° C | 61% | 1013.7 hPa | 0 mm | - | 705 W/m² | - |
| 1777733064 | 6.67° C | 66% | 1013.5 hPa | 0 mm | - | 529 W/m² | - |
| 1777732760 | 6.67° C | 74% | 1013.7 hPa | 0 mm | - | 270 W/m² | - |
| 1777732457 | 6.67° C | 74% | 1013.7 hPa | 0 mm | - | 368 W/m² | - |
| 1777732155 | 6.67° C | 76% | 1013.8 hPa | 0 mm | - | 453 W/m² | - |
| 1777731852 | 7.22° C | 72% | 1013.5 hPa | 0 mm | - | 712 W/m² | - |
* Rain latest hour (hover to see other rain measurements)
** Current wind speed in m/s (hover to see current wind gust speed)